{"data":{"norad_id":64065,"epoch":"2026-09-19T23:44:00.178080Z","epoch_age_seconds":187678,"freshness":"STALE","line1":"1 64065U 25107B   26262.98889095  .00181487  00000+0  13844-2 0  9990","line2":"2 64065  42.9990   7.2972 0001622 287.6340  72.4351 15.70887776 77859","mean_motion":15.70887776,"eccentricity":0.0001622,"inclination_deg":42.999,"raan_deg":7.2972,"arg_perigee_deg":287.634,"mean_anomaly_deg":72.4351,"bstar":0.0013844,"rev_number":7785,"period_min":91.667910464407,"perigee_km":355.26617710791,"apogee_km":357.45084745209,"semimajor_km":6734.49551228,"source":"CELESTRAK","updated_at":"2026-09-21T09:00:35.191721Z"}}